Weather observations for the past three days for
Emporia, Emporia Municipal Airport
Imperial (Metric)
Date Time (cdt) Wind (mph) Vis. (mi.) Weather Sky Cond. Temperature (ºF) Relative Humidity Wind Chill (°F) Heat Index (°F) Pressure Precipitation (in)
Air Dwpt 6 hour altimeter (in) sea level (mb) 1 hr 3 hr 6 hr
Max. Min.
22 20:53 W 7 10.00 Fair CLR 84 73.9 72% 91 29.83 1008.8
22 19:53 W 6 2.00 Fair with Haze CLR 90 75 62% 100 29.82 1008.3
22 18:53 W 9 9.00 Light Rain SCT075 BKN095 BKN110 90 72 96.1 90 56% 97 29.82 1008.3
22 17:53 W 14 G 23 10.00 A Few Clouds FEW085 95 72 47% 103 29.82 1008.4
22 16:53 SW 17 G 33 10.00 Fair CLR 96.1 71.1 44% 104 29.83 1008.5
22 15:53 SW 22 G 32 10.00 A Few Clouds and Breezy FEW065 95 70 44% 101 29.84 1009.0
22 14:53 SW 22 G 39 10.00 Fair and Breezy CLR 93.9 71.1 48% 101 29.86 1009.7
22 13:53 S 31 G 40 10.00 Fair and Windy CLR 93.9 72 49% 102 29.86 1009.8
22 12:53 S 26 G 38 10.00 Fair and Windy CLR 91 71.1 91.9 77 52% 98 29.88 1010.4
22 11:53 S 22 G 35 10.00 Fair and Breezy CLR 89.1 71.1 55% 95 29.89 1010.8
22 10:53 S 22 G 31 10.00 Fair and Breezy CLR 86 71.1 61% 92 29.91 1011.6
22 09:53 S 21 G 35 10.00 Fair and Breezy CLR 82.9 70 65% 87 29.93 1012.3
22 08:53 S 16 G 30 10.00 Fair CLR 80.1 68 67% 83 29.94 1012.8
22 07:53 S 16 10.00 Fair CLR 77 66.9 71% 79 29.94 1012.7
22 06:53 S 15 G 26 10.00 Fair CLR 77 66 78.1 77 69% 79 29.95 1013.0
22 05:53 S 15 G 25 10.00 Fair CLR 77 66 69% 79 29.96 1013.2
22 04:53 S 15 G 22 10.00 Light Rain FEW100 77 66 69% 79 29.97 1013.8
22 03:53 S 14 10.00 Fair CLR 78.1 66 67% 80 30 1014.5
22 02:53 S 14 10.00 Mostly Cloudy BKN070 78.1 66 67% 80 30.01 1015.0
22 01:53 S 14 10.00 Fair CLR 78.1 66.9 69% 80 30.01 1015.0
22 00:53 S 13 10.00 Fair CLR 78.1 68 88 78.1 71% 80 30.02 1015.2
21 23:53 S 15 10.00 Fair CLR 79 68 69% 81 30.02 1015.2
21 22:53 S 13 10.00 Fair CLR 80.1 69.1 69% 83 30.02 1015.2
21 21:53 S 13 10.00 Fair CLR 81 68 65% 84 30.01 1015.0
21 20:53 S 10 10.00 Fair CLR 82.9 68 61% 86 30 1014.8
21 19:53 S 13 10.00 Fair CLR 86 69.1 57% 90 30.01 1015.1
21 18:53 S 17 10.00 A Few Clouds FEW050 88 69.1 91 86 54% 92 30.02 1015.5
21 17:53 S 15 G 23 10.00 Partly Cloudy FEW070 SCT100 90 69.1 50% 95 30.04 1015.9
21 16:53 S 13 10.00 A Few Clouds FEW100 89.1 71.1 55% 95 30.06 1016.8
21 15:53 S 14 G 25 10.00 Partly Cloudy FEW080 SCT100 89.1 70 53% 94 30.08 1017.5
21 14:53 S 16 G 22 10.00 Partly Cloudy SCT047 91 70 50% 97 30.1 1018.1
21 13:53 S 14 10.00 Mostly Cloudy SCT041 SCT050 BKN095 90 72 56% 97 30.12 1018.8
21 12:53 S 16 G 24 10.00 Partly Cloudy FEW034 FEW044 SCT055 88 73 88 73.9 61% 96 30.14 1019.6
21 11:53 S 17 10.00 A Few Clouds FEW030 87.1 73 63% 95 30.16 1020.3
21 10:53 S 15 G 28 10.00 Fair CLR 84.9 73 68% 92 30.17 1020.6
21 09:53 S 16 G 25 10.00 Fair CLR 81 72 74% 85 30.18 1020.7
21 08:53 S 13 G 20 10.00 Partly Cloudy SCT080 78.1 72 82% 80 30.19 1021.2
21 07:53 S 10 10.00 Partly Cloudy SCT070 75.9 71.1 85% 76 30.19 1021.1
21 06:53 S 9 10.00 A Few Clouds FEW080 73.9 70 75 72 88% 30.18 1020.8
21 05:53 S 9 10.00 Fair CLR 73.9 70 88% 30.17 1020.7
21 04:53 S 8 10.00 Fair CLR 73.9 70 88% 30.17 1020.7
21 03:53 S 7 10.00 Fair CLR 73 69.1 87% 30.18 1020.6
21 02:53 S 7 10.00 Fair CLR 73 69.1 87% 30.19 1021.1
21 01:53 S 6 10.00 Fair CLR 73.9 69.1 85% 30.19 1021.3
21 00:53 S 8 10.00 Fair CLR 75 69.1 86 73.9 82% 75 30.18 1021.1
20 23:53 SE 6 10.00 Fair CLR 75 69.1 82% 75 30.19 1021.1
20 22:53 SE 6 10.00 Fair CLR 75.9 69.1 79% 77 30.17 1020.7
20 21:53 SE 5 10.00 Fair CLR 77 68 74% 79 30.16 1020.2
20 20:53 SE 7 10.00 Fair CLR 80.1 68 67% 83 30.15 1019.8
20 19:53 SE 9 10.00 Fair CLR 84.9 68 57% 88 30.15 1019.9
20 18:53 SE 9 10.00 Fair CLR 86 69.1 90 84.9 57% 90 30.15 1019.8
20 17:53 S 10 10.00 Fair CLR 88 69.1 54% 92 30.16 1020.3
20 16:53 S 12 G 22 10.00 Fair CLR 88 68 52% 92 30.19 1021.1
20 15:53 S 12 10.00 Partly Cloudy SCT048 90 70 52% 95 30.21 1021.8
20 14:53 SE 12 10.00 Mostly Cloudy FEW048 BKN080 89.1 70 53% 94 30.23 1022.5
20 13:53 S 9 10.00 Mostly Cloudy FEW042 SCT065 BKN075 86 69.1 57% 90 30.24 1022.9
20 12:53 S 10 10.00 A Few Clouds FEW047 87.1 70 87.1 71.1 57% 92 30.25 1023.4
20 11:53 S 7 10.00 Fair CLR 84.9 71.1 63% 90 30.26 1023.7
20 10:53 S 8 6.00 Fair with Haze CLR 82.9 72 70% 88 30.27 1023.9
20 09:53 S 8 10.00 Fair CLR 80.1 71.1 74% 84 30.26 1023.8
20 08:53 SE 3 7.00 Mostly Cloudy BKN004 73 71.1 94% 30.26 1024.0
20 07:53 SE 6 0.25 Fog VV002 71.1 71.1 100% 30.25 1023.7
20 06:53 E 5 0.25 Fog VV002 71.1 70 72 70 96% 30.24 1023.2
20 05:53 E 6 0.50 Fog VV002 71.1 70 96% 30.23 1022.8
20 04:53 NE 5 0.25 Fog VV002 71.1 70 96% 30.21 1022.3
20 03:53 NE 6 0.50 Fog VV002 72 70 94% 30.21 1022.1
20 02:53 NE 6 4.00 Fog/Mist OVC003 72 70 94% 30.2 1022.0
20 01:53 N 3 6.00 Fog/Mist SCT090 71.1 70 96% 30.21 1022.4
20 00:53 N 5 9.00 Overcast BKN055 OVC090 72 70 79 72 94% 30.22 1022.7
19 23:53 NE 6 7.00 Mostly Cloudy FEW005 BKN065 BKN080 72 70 94% 30.22 1022.4
19 22:53 NE 7 10.00 Partly Cloudy SCT008 73 70 90% 30.21 1022.1
19 21:53 NE 6 10.00 Overcast OVC011 73 71.1 94% 30.2 1021.8
Date Time (cdt) Wind (mph) Vis. (mi.) Weather Sky Cond. Air Dwpt Max. Min. Relative Humidity Wind Chill (°F) Heat Index (°F) altimeter (in) sea level (mb) 1 hr 3 hr 6 hr
6 hour
Temperature (ºF) Pressure Precipitation (in)